Weather History for KJZI - April, 2014

Change the Weather History Date:

Sunday, April 13, 2014

  Actual Average (KCHS) Record (KCHS)
Temperature  
Mean Temperature 68 °F 64 °F  
Max Temperature 78 °F 76 °F 90 °F (2001)
Min Temperature 59 °F 53 °F 37 °F (1976)
Degree Days  
Heating Degree Days 0 3  
Month to date heating degree days 53  
Since 1 July heating degree days 1928  
Cooling Degree Days 4 2  
Month to date cooling degree days 25  
Year to date cooling degree days 59  
Growing Degree Days 18 (Base 50)    
Moisture  
Dew Point 62 °F    
Average Humidity 81    
Maximum Humidity 100    
Minimum Humidity 54    
Precipitation  
Precipitation 0.00 in 0.09 in 0.71 in (1947)
Month to date precipitation 1.28  
Year to date precipitation 11.66  
Sea Level Pressure  
Sea Level Pressure 30.18 in    
Wind  
Wind Speed 3 mph (SE)    
Max Wind Speed 13 mph    
Max Gust Speed 16 mph    
Visibility 8 miles    
Events Fog    
T = Trace of Precipitation, MM = Missing Value Source: NWS Daily Summary

Daily Weather History Graph

Daily Weather History Graph

Search for Another Location

Airport or City:

Trip Planner

Search our weather history database for the weather conditions in past years. The results will help you decide how hot, cold, wet, or windy it might be!

Date:

Astronomy

Apr. 13, 2014 Rise Set
Actual Time 6:52 AM EDT 7:48 PM EDT
Civil Twilight 6:27 AM EDT 8:13 PM EDT
Nautical Twilight 5:57 AM EDT 8:43 PM EDT
Astronomical Twilight 5:27 AM EDT 9:14 PM EDT
Moon 6:28 PM EDT (4/13) 5:45 AM EDT (4/13)
Length of Visible Light 13h 46m
Length of Day
12h 55m
Waxing Gibbous, 97% of the Moon is Illuminated
Apr 13
Waxing Gibbous
Apr 15
Full
Apr 22
Last Quarter
Apr 29
New
May 6
First Quarter

Hourly Weather History & Observations

Time (EDT) Temp. Dew Point Humidity Pressure Visibility Wind Dir Wind Speed Gust Speed Precip Events Conditions
12:15 AM 62.6 °F 62.6 °F 100% 30.21 in 7.0 mi Calm Calm - 0.00 in   Clear
12:35 AM 62.6 °F 62.6 °F 100% 30.21 in 9.0 mi Calm Calm - 0.00 in   Clear
12:55 AM 62.6 °F 62.6 °F 100% 30.21 in 9.0 mi Calm Calm - 0.00 in   Clear
1:15 AM 62.6 °F 62.6 °F 100% 30.21 in 8.0 mi Calm Calm - 0.00 in   Clear
1:35 AM 62.6 °F 60.8 °F 94% 30.20 in 8.0 mi Calm Calm - 0.00 in   Clear
1:55 AM 62.6 °F 60.8 °F 94% 30.19 in 7.0 mi Calm Calm - 0.00 in   Clear
2:15 AM 60.8 °F 60.8 °F 100% 30.19 in 5.0 mi Calm Calm - 0.00 in   Clear
2:35 AM 60.8 °F 60.8 °F 100% 30.19 in 5.0 mi Calm Calm - 0.00 in   Clear
2:55 AM 60.8 °F 60.8 °F 100% 30.18 in 3.0 mi Calm Calm - 0.00 in   Clear
3:15 AM 60.8 °F 60.8 °F 100% 30.18 in 2.5 mi Calm Calm - 0.00 in   Clear
3:35 AM 60.8 °F 60.8 °F 100% 30.18 in 1.0 mi Calm Calm - 0.00 in   Clear
3:55 AM 60.8 °F 60.8 °F 100% 30.18 in 8.0 mi Calm Calm - 0.00 in   Clear
4:15 AM 60.8 °F 60.8 °F 100% 30.18 in 3.0 mi Calm Calm - 0.00 in   Clear
4:35 AM 60.8 °F 60.8 °F 100% 30.17 in 0.2 mi Calm Calm - 0.00 in Fog Fog
4:55 AM 60.8 °F 60.8 °F 100% 30.17 in 5.0 mi Calm Calm - 0.00 in   Clear
5:15 AM 59.0 °F 59.0 °F 100% 30.17 in 1.0 mi Calm Calm - 0.00 in   Clear
5:35 AM 59.0 °F 59.0 °F 100% 30.17 in 0.2 mi Calm Calm - 0.00 in Fog Fog
5:55 AM 60.8 °F 60.8 °F 100% 30.18 in 0.5 mi Calm Calm - 0.00 in Fog Fog
6:15 AM 60.8 °F 60.8 °F 100% 30.19 in 0.8 mi Calm Calm - 0.00 in   Mist
6:35 AM 59.0 °F 59.0 °F 100% 30.19 in 0.2 mi Calm Calm - 0.00 in Fog Fog
7:15 AM 59.0 °F 59.0 °F 100% 30.21 in 0.5 mi Calm Calm - 0.00 in Fog Fog
7:35 AM 59.0 °F 59.0 °F 100% 30.21 in 0.8 mi Calm Calm - 0.00 in   Mist
7:55 AM 62.6 °F 60.8 °F 94% 30.22 in 2.0 mi Calm Calm - 0.00 in   Clear
8:15 AM 64.4 °F 62.6 °F 94% 30.22 in 5.0 mi Calm Calm - 0.00 in   Clear
8:35 AM 66.2 °F 64.4 °F 94% 30.22 in 7.0 mi Calm Calm - 0.00 in   Clear
8:55 AM 69.8 °F 68.0 °F 94% 30.22 in 9.0 mi Calm Calm - 0.00 in   Clear
9:15 AM 69.8 °F 66.2 °F 88% 30.22 in 10.0 mi Calm Calm - 0.00 in   Clear
9:35 AM 73.4 °F 64.4 °F 73% 30.22 in 10.0 mi SE 5.8 mph - 0.00 in   Clear
9:55 AM 73.4 °F 62.6 °F 69% 30.22 in 10.0 mi SE 6.9 mph - 0.00 in   Clear
10:15 AM 75.2 °F 60.8 °F 61% 30.22 in 10.0 mi SE 6.9 mph - 0.00 in   Clear
10:35 AM 75.2 °F 60.8 °F 61% 30.22 in 10.0 mi SSE 8.1 mph - 0.00 in   Clear
10:55 AM 75.2 °F 60.8 °F 61% 30.23 in 10.0 mi South 9.2 mph - 0.00 in   Clear
11:15 AM 75.2 °F 60.8 °F 61% 30.23 in 10.0 mi South 10.4 mph - 0.00 in   Clear
11:35 AM 75.2 °F 60.8 °F 61% 30.23 in 10.0 mi SSE 9.2 mph - 0.00 in   Clear
11:55 AM 75.2 °F 60.8 °F 61% 30.23 in 10.0 mi SSE 6.9 mph - 0.00 in   Partly Cloudy
12:15 PM 77.0 °F 60.8 °F 57% 30.23 in 10.0 mi South 9.2 mph - 0.00 in   Partly Cloudy
12:35 PM 75.2 °F 60.8 °F 61% 30.22 in 10.0 mi SSE 6.9 mph - 0.00 in   Partly Cloudy
12:55 PM 78.8 °F 60.8 °F 54% 30.21 in 10.0 mi South 8.1 mph - 0.00 in   Partly Cloudy
1:15 PM 77.0 °F 60.8 °F 57% 30.21 in 10.0 mi South 6.9 mph - 0.00 in   Clear
1:35 PM 78.8 °F 60.8 °F 54% 30.21 in 10.0 mi SE 5.8 mph - 0.00 in   Partly Cloudy
1:55 PM 78.8 °F 60.8 °F 54% 30.21 in 10.0 mi SE 9.2 mph - 0.00 in   Partly Cloudy
2:15 PM 78.8 °F 60.8 °F 54% 30.20 in 10.0 mi ESE 10.4 mph - 0.00 in   Scattered Clouds
2:35 PM 77.0 °F 60.8 °F 57% 30.19 in 10.0 mi ESE 8.1 mph - 0.00 in   Partly Cloudy
2:55 PM 78.8 °F 60.8 °F 54% 30.18 in 10.0 mi SSE 9.2 mph - 0.00 in   Clear
3:15 PM 77.0 °F 59.0 °F 54% 30.17 in 10.0 mi ESE 12.7 mph 16.1 mph 0.00 in   Clear
3:35 PM 77.0 °F 59.0 °F 54% 30.17 in 10.0 mi SE 10.4 mph 16.1 mph 0.00 in   Clear
3:55 PM 78.8 °F 60.8 °F 54% 30.16 in 10.0 mi ESE 10.4 mph - 0.00 in   Clear
4:15 PM 78.8 °F 60.8 °F 54% 30.16 in 10.0 mi SSE 9.2 mph - 0.00 in   Clear
4:35 PM 77.0 °F 59.0 °F 54% 30.15 in 10.0 mi SSE 10.4 mph 16.1 mph 0.00 in   Clear
4:55 PM 77.0 °F 59.0 °F 54% 30.15 in 10.0 mi ESE 10.4 mph - 0.00 in   Clear
5:15 PM 77.0 °F 59.0 °F 54% 30.15 in 10.0 mi SSE 8.1 mph - 0.00 in   Clear
5:35 PM 75.2 °F 60.8 °F 61% 30.15 in 10.0 mi SE 9.2 mph - 0.00 in   Clear
5:55 PM 75.2 °F 60.8 °F 61% 30.14 in 10.0 mi SE 10.4 mph - 0.00 in   Clear
6:15 PM 75.2 °F 60.8 °F 61% 30.14 in 10.0 mi SE 6.9 mph - 0.00 in   Clear
6:35 PM 75.2 °F 62.6 °F 65% 30.14 in 10.0 mi ESE 9.2 mph - 0.00 in   Clear
6:55 PM 73.4 °F 62.6 °F 69% 30.14 in 10.0 mi ESE 8.1 mph - 0.00 in   Clear
7:15 PM 73.4 °F 62.6 °F 69% 30.14 in 10.0 mi East 6.9 mph - 0.00 in   Clear
7:35 PM 69.8 °F 66.2 °F 88% 30.14 in 10.0 mi East 6.9 mph - 0.00 in   Clear
7:55 PM 69.8 °F 66.2 °F 88% 30.13 in 10.0 mi Calm Calm - 0.00 in   Clear
8:15 PM 69.8 °F 66.2 °F 88% 30.12 in 10.0 mi Calm Calm - 0.00 in   Scattered Clouds
8:35 PM 69.8 °F 66.2 °F 88% 30.13 in 10.0 mi East 5.8 mph - 0.00 in   Scattered Clouds
8:55 PM 68.0 °F 66.2 °F 94% 30.13 in 10.0 mi East 5.8 mph - 0.00 in   Partly Cloudy
9:15 PM 66.2 °F 66.2 °F 100% 30.13 in 10.0 mi East 5.8 mph - 0.00 in   Clear
9:35 PM 66.2 °F 66.2 °F 100% 30.13 in 10.0 mi Calm Calm - 0.00 in   Clear
10:15 PM 66.2 °F 66.2 °F 100% 30.14 in 10.0 mi Calm Calm - 0.00 in   Clear
10:35 PM 66.2 °F 66.2 °F 100% 30.13 in 10.0 mi Calm Calm - 0.00 in   Partly Cloudy
10:55 PM 66.2 °F 66.2 °F 100% 30.13 in 10.0 mi Calm Calm - 0.00 in   Scattered Clouds
11:15 PM 69.8 °F 66.2 °F 88% 30.13 in 10.0 mi ESE 5.8 mph - 0.00 in   Mostly Cloudy
11:35 PM 69.8 °F 66.2 °F 88% 30.13 in 10.0 mi ESE 4.6 mph - 0.00 in   Mostly Cloudy
11:55 PM 69.8 °F 66.2 °F 88% 30.13 in 10.0 mi SE 5.8 mph - 0.00 in   Scattered Clouds